Location: Newark
(29.4733°N, 82.6067°W)
Time: 02:55:58
(UTC+00:00)

STARLINK-3046 - Pass Details

Date: 28 September 2021
Orbit: 357 x 362 km, 70.0° (Epoch: 16 October)

Event Time Altitude Azimuth Distance (km) Brightness Sun altitude
Rises 10:55:26 0° 175° (S) 2,166 6.7 -6.7°
Reaches altitude 10° 10:57:40 10° 158° (SSE) 1,327 5.9 -6.2°
Maximum altitude 10:59:58 21° 106° (ESE) 867 5.8 -5.7°
Drops below altitude 10° 11:02:16 10° 54° (NE) 1,336 6.5 -5.2°
Sets 11:04:32 0° 37° (NE) 2,186 7.3 -4.7°
